ROMMA est une association bénévole à but non lucratif. Votre soutien est indispensable : ADHERER à ROMMA ou FAIRE un DON

Voiron - (38, Isère)

Voironnais (300 m)   Longitude: 05° 35' E   Latitude: 45° 23' N Station partenaire n°109
 

Détail journalier du     <<     >>

Température Precipitation Humidité Pression Vent Dir Rafale Dir. rafale Ensol.
Heure (°C) (mm) (%) (hPa) (km/h) (km/h) (min)
01:00 9.906710252OSO5OSO0
02:00 9.107010261NNO5NNO0
03:00 8.207310261NNO5NNO0
04:00 7.607510261NNO3NNO0
05:00 6.9077102603NNO0
06:00 6.707710262NNO5NNO0
07:00 6.307910261NNO6NNO0
08:00 8.807210271NNO5NNO30
09:00 12.605710261ENE5E60
10:00 13.805410262NNE6SSO60
11:00 15.105110254S11SSO60
12:00 16.804710254SSO10SSE60
13:00 18.804510244S15SSE60
14:00 20.103710247S23NNO60
15:00 20.3030102315NNO26NNO60
16:00 20.7034102314NNO26NNO60
17:00 21.0032102311NNO24N60
18:00 19.6038102313NNO24N60
19:00 17.9043102312N24NNO30
20:00 16.9046102411N26NNO0
21:00 15.405310246NE21NE0
22:00 14.305810246NO23NNE0
23:00 13.1064102510N29NE0
minuit 11.706810255NNO15NNO0

Graphique du 24-03-2019

 

Serveur OMMA